This is the latest recevied weather packets stored in our database for station/object S56VIL-11. If no packets are shown the sender has not sent any weather packets the latest 10 day(s).
| Time | Temp. | Humidity | Pressure | Rain* | Wind** | Luminosity | Snow |
|---|---|---|---|---|---|---|---|
| 1778172129 | 10° C | 81% | 1027.2 hPa | - | - | - | - |
| 1778171229 | 10.56° C | 80% | 1027.3 hPa | - | - | - | - |
| 1778170329 | 11.67° C | 79% | 1027.1 hPa | - | - | - | - |
| 1778169429 | 12.78° C | 80% | 1027.1 hPa | - | - | - | - |
| 1778168529 | 13.33° C | 80% | 1026.7 hPa | - | - | - | - |
| 1778167629 | 13.89° C | 81% | 1026.6 hPa | - | - | - | - |
| 1778166729 | 13.89° C | 81% | 1026.3 hPa | - | - | - | - |
| 1778165829 | 14.44° C | 81% | 1025.8 hPa | - | - | - | - |
| 1778164929 | 16.11° C | 80% | 1025.6 hPa | - | - | - | - |
| 1778164011 | 17.22° C | 80% | 1025.3 hPa | - | - | - | - |
| 1778163107 | 20° C | 82% | 1025.3 hPa | - | - | - | - |
| 1778162208 | 19.44° C | 83% | 1025.4 hPa | - | - | - | - |
| 1778161307 | 17.78° C | 83% | 1025.4 hPa | - | - | - | - |
| 1778160410 | 16.67° C | 82% | 1025.4 hPa | - | - | - | - |
| 1778159507 | 16.67° C | 84% | 1025.6 hPa | - | - | - | - |
| 1778158613 | 15.56° C | 84% | 1025.7 hPa | - | - | - | - |
| 1778157707 | 16.67° C | 82% | 1025.7 hPa | - | - | - | - |
| 1778156830 | 16.67° C | 84% | 1025.8 hPa | - | - | - | - |
| 1778155906 | 17.22° C | 83% | 1025.6 hPa | - | - | - | - |
| 1778155006 | 17.22° C | 84% | 1025.8 hPa | - | - | - | - |
| 1778154106 | 18.89° C | 82% | 1025.9 hPa | - | - | - | - |
| 1778153209 | 18.89° C | 84% | 1026 hPa | - | - | - | - |
| 1778152305 | 18.33° C | 84% | 1026 hPa | - | - | - | - |
| 1778151405 | 19.44° C | 85% | 1026 hPa | - | - | - | - |
| 1778150505 | 17.78° C | 87% | 1026.1 hPa | - | - | - | - |
* Rain since midnight (hover to see other rain measurements)
** Current wind speed in m/s (hover to see current wind gust speed)